Tracking 17138 objects as of 8-July-2015
HD Live streaming from Space Station

SL-16 R/B

Track SL-16 R/B now!
10-day predictions
SL-16 R/B is classified as:


NORAD ID: 22285
Int'l Code: 1992-093B
Perigee: 847.5 km
Apogee: 851.6 km
Inclination: 71.0 °
Period: 101.8 minutes
Semi major axis: 7220 km
RCS: 8.7386 m2 (large)
Launch date: December 25, 1992
Source: Commonwealth of Independent States (former USSR) (CIS)

Note: This is a ROCKET BODY
Your satellite tracking list
Your tracking list is empty





NASA's NSSDC Master Catalog

Two Line Element Set (TLE):
1 22285U 92093B   15187.64138723 -.00000271  00000-0 -11524-3 0  9996
2 22285 071.0219 264.8969 0002883 164.7401 195.3809 14.14971705161887

Source of the keplerian elements: AFSPC

N2YO: 315